Notices

What's New in latest Release from April 7th, 2021:

- Updated Glossary, including Speed of Maximum Gust, and Total Hourly Precipitation

- Updated national and regional climate services offices contacts and prices information

- Addition of station inventory lists for 1981-2010, 1971-2000, and 1961-1990 Normals.

If you haven't already, please take our survey and provide feedback about our website: https://eccc.sondage-survey.ca/f/LanguageSelection.aspx?s=442ca660-fcf1-47c0-95a9-59707d6fd709

Hourly Data Report for August 26, 2017

TORONTO CITY
ONTARIO

43°40'00.000" N
79°24'00.000" W
112.50 m
6158355
71508
XTO

Download Data

Hourly Data (August 2017)
Hourly Data Report for August 26, 2017
TIME
LST
Temp Definition
°C
Dew Point Definition
°C
Rel Hum Definition
%
Precip. Amount Definition
mm

Wind Dir Definition
10's deg

Wind Spd Definition
km/h
Visibility Definition
km
Stn Press Definition
kPa
Hmdx Definition


Wind Chill Definition


Weather Definition


00:00 15.1 4.9 51 0.0 LegendMM LegendMM   101.17     LegendNANA
01:00 14.8 4.9 51 0.0 LegendMM LegendMM   101.15     LegendNANA
02:00 14.4 5.1 54 0.0 LegendMM LegendMM   101.13     LegendNANA
03:00 12.9 5.8 62 0.0 LegendMM LegendMM   101.15     LegendNANA
04:00 12.1 6.4 68 0.0 LegendMM LegendMM   101.18     LegendNANA
05:00 12.8 6.9 68 0.0 LegendMM LegendMM   101.20     LegendNANA
06:00 12.0 7.4 74 0.0 LegendMM LegendMM   101.25     LegendNANA
07:00 13.9 8.8 72 0.0 LegendMM LegendMM   101.29     LegendNANA
08:00 15.9 9.5 66 0.0 LegendMM LegendMM   101.29     LegendNANA
09:00 18.0 9.2 57 0.0 LegendMM LegendMM   101.34     LegendNANA
10:00 19.9 7.2 44 0.0 LegendMM LegendMM   101.34     LegendNANA
11:00 19.9 5.5 39 0.0 LegendMM LegendMM   101.31     LegendNANA
12:00 21.1 6.9 40 0.0 LegendMM LegendMM   101.27     LegendNANA
13:00 20.3 7.1 43 0.0 LegendMM LegendMM   101.27     LegendNANA
14:00 20.6 5.6 38 0.0 LegendMM LegendMM   101.21     LegendNANA
15:00 21.3 5.5 36 0.0 LegendMM LegendMM   101.18     LegendNANA
16:00 20.3 6.5 40 0.0 LegendMM LegendMM   101.13     LegendNANA
17:00 20.1 5.7 39 0.0 LegendMM LegendMM   101.14     LegendNANA
18:00 19.7 6.5 42 0.0 LegendMM LegendMM   101.15     LegendNANA
19:00 19.0 6.4 44 0.0 LegendMM LegendMM   101.17     LegendNANA
20:00 18.4 7.0 47 0.0 LegendMM LegendMM   101.20     LegendNANA
21:00 17.5 6.9 50 0.0 LegendMM LegendMM   101.23     LegendNANA
22:00 17.2 7.8 54 0.0 LegendMM LegendMM   101.21     LegendNANA
23:00 15.8 8.0 60 0.0 LegendMM LegendMM   101.20     LegendNANA

Notes on Data Quality.

Legend

  • E = Estimated
  • M = Missing
  • NA = Not Available*
  • [empty] = Indicates an unobserved value
Date modified: